Regional Weather Roundup
Issued by NWS

Home | Current Version | Previous Version | Text Only | Print | Product List | Glossary Off
Versions: 1 2 3 4 5 6 7 8 9 10 11 12 13 14 15 16 17 18 19 20 21 22 23 24 25 26 27 28 29 30 31 32 33 34 35 36 37 38 39 40 41 42 43 44 45 46 47 48 49 50

000
ASUS43 KLOT 302310
RWRIL

ILLINOIS REGIONAL WEATHER ROUNDUP
NATIONAL WEATHER SERVICE CHICAGO/ROMEOVILLE IL
600 PM CDT THU OCT 30 2014

NOTE: "FAIR" INDICATES FEW OR NO CLOUDS BELOW 12,000 FEET WITH NO
SIGNIFICANT WEATHER AND/OR OBSTRUCTIONS TO VISIBILITY.

* THESE STATIONS ARE NOT UNDER NWS QUALITY CONTROL. THEY ALSO MAY NOT
  REPORT WEATHER SUCH AS PRECIPITATION OR FOG.

ILZ001-002-007-009-015-016-024-310000-
NORTHWEST ILLINOIS

CITY           SKY/WX    TMP DP  RH WIND       PRES   REMARKS
MOLINE         CLOUDY    50  37  61 NE5       30.07R
STERLING*      CLOUDY    48  37  66 CALM      30.08R
SAVANNA*       CLOUDY    49  37  62 CALM      30.07S
$$

ILZ003-004-008-010-011-017-018-310000-
NORTH CENTRAL ILLINOIS

CITY           SKY/WX    TMP DP  RH WIND       PRES   REMARKS
ROCKFORD       CLOUDY    49  36  61 W5        30.08S
FREEPORT*      CLOUDY    47  36  63 CALM      30.08F
ROCHELLE*      CLOUDY    48  36  64 CALM      30.07S
DE KALB*       CLOUDY    46  35  63 NW3       30.07S
PERU*          CLOUDY    49  37  65 CALM      30.08R
$$

ILZ005-006-012>014-019>023-310000-
NORTHEAST ILLINOIS

CITY           SKY/WX    TMP DP  RH WIND       PRES   REMARKS
CHICAGO-OHARE  CLOUDY    49  35  58 SW8       30.06R
CHICAGO-MIDWAY CLOUDY    50  36  58 W8        30.07R
AURORA         CLOUDY    48  35  60 SW5       30.07S
LANSING*       CLOUDY    48  36  62 W6        30.07S
JOLIET*        CLOUDY    48  36  62 CALM      30.08R
WAUKEGAN       CLOUDY    49  34  56 W3        30.05S
DUPAGE AIRPORT CLOUDY    49  36  61 SW6       30.06S
KANKAKEE*      CLOUDY    48  39  72 CALM      30.07F
WHEELING       CLOUDY    51  35  54 W5        30.08R
MORRIS*        CLOUDY    48  39  71 CALM      30.06S
ROMEOVILLE*    CLOUDY    47  36  63 CALM      30.07S
NORTHERLY ISL    N/A     50  34  54 SW6         N/A
$$

LMZ740>746-310000-
SOUTHERN LAKE MICHIGAN

STATION/POSITION SKY/WX   TEMP    WIND        PRES    VSBY  WAVE
                          AIR SEA DIR/SP/G                  HT/PER
                          (F)     (DEG/KT/KT) (MB)    (MI)  (FT/S)
SOUTHERN BUOY              50 53  230/  8/ 10 1017.9F         1/ 3
WAUKEGAN HARBOR            51     300/  6/ 10   N/A
HARRISON CRIB              50     210/ 12/ 14   N/A
BURNHAM HARBOR             50     210/  4/  9   N/A
CALUMET HARBOR             49     230/  4/  8 1016.8S
MICHIGAN CITY              50     200/  9/ 11   N/A
$$

ILZ025>027-034>036-040-047-049-050-058-095>099-310000-
WEST-CENTRAL ILLINOIS

CITY           SKY/WX    TMP DP  RH WIND       PRES   REMARKS
QUINCY         PTCLDY    54  42  64 NE5       30.03R
GALESBURG*     CLOUDY    46  40  81 CALM      30.07R
MACOMB*        CLEAR     48  40  73 E7        30.06R
JACKSONVILLE*  CLOUDY    53  45  75 E5        30.04R
PITTSFIELD*    PTCLDY    51  42  69 CALM      30.04R
$$

ILZ028>032-037-038-041>044-048-051>054-059>061-310000-
CENTRAL ILLINOIS

CITY           SKY/WX    TMP DP  RH WIND       PRES   REMARKS
PONTIAC        CLOUDY    47  44  86 S3        30.07S
BLOOMINGTON    LGT RAIN  48  42  80 CALM      30.07S
DECATUR        CLOUDY    49  45  86 CALM      30.06R
PEORIA         LGT RAIN  48  43  82 E7        30.06S
LACON*         CLOUDY    46  41  85 CALM      30.06R
LINCOLN*       CLOUDY    49  45  84 CALM      30.05R
SPRINGFIELD    CLOUDY    51  43  74 SE5       30.06R
TAYLORVILLE    CLOUDY    48  45  87 NE3       30.05R
$$

ILZ033-039-045-046-055>057-062-063-310000-
EAST-CENTRAL ILLINOIS

CITY           SKY/WX    TMP DP  RH WIND       PRES   REMARKS
CHAMPAIGN      LGT RAIN  48  44  86 CALM      30.06S
DANVILLE*      CLOUDY    49  36  60 CALM      30.04S
RANTOUL*       CLOUDY    53  36  53 CALM      30.06S
MATTOON        CLOUDY    49  44  83 E6        30.03F
PARIS*         CLOUDY    51  37  59 CALM      30.07R
$$

ILZ079-100>102-310000-
SOUTHWEST ILLINOIS

CITY           SKY/WX    TMP DP  RH WIND       PRES   REMARKS
ALTON          CLOUDY    54  39  58 E6        30.03R
BELLEVILLE     CLOUDY    54  46  76 CALM      30.02R
CAHOKIA*       CLOUDY    55  47  74 CALM      30.02R
SPARTA*        LGT RAIN  55  44  66 SW6       30.05R
$$

ILZ064>066-069>071-074>076-080>082-084>086-088>090-092>094-310000-
SOUTH-CENTRAL ILLINOIS

CITY           SKY/WX    TMP DP  RH WIND       PRES   REMARKS
CARBONDALE     CLOUDY    58  41  53 SW6       30.04R
CAIRO*         CLOUDY    61  44  53 CALM      30.05R
EFFINGHAM*     CLOUDY    53  39  60 CALM      30.05R
MARION         CLOUDY    59  41  51 S5        30.05R
MT. VERNON     CLOUDY    55  39  54 CALM      30.05R
CENTRALIA*     LGT RAIN  55  40  57 SE5       30.03S
SALEM*         CLOUDY    57  40  53 S3        30.04S
METROPOLIS*    CLOUDY    58  45  62 CALM      30.03S
$$

ILZ067-068-072-073-078-083-087-091-310000-
SOUTHEAST ILLINOIS

CITY           SKY/WX    TMP DP  RH WIND       PRES   REMARKS
LAWRENCEVILLE  CLOUDY    53  31  42 E6        30.06F
FLORA*         DRIZZLE   53  42  66 SE5       30.04F
FAIRFIELD*     CLOUDY    55  40  57 CALM      30.04S
HARRISBURG*    MOCLDY    57  40  53 CALM      30.05S HAZE
ROBINSON*      CLOUDY    55  43  64 E3        30.07S
CARMI*         MOCLDY    57  42  58 CALM      30.05S
$$

ABBREVIATIONS USED IN REMARKS
   TC - TEMPERATURE IN CELSIUS
  WCI - WIND CHILL INDEX
   HX - HEAT INDEX
  VSB - VISIBILITY
$$




USA.gov is the U.S. government's official web portal to all federal, state and local government web resources and services.